Temp_Advection
nan nan nan nan nan nan nan nan nan nan nan nan nan nan nan nan nan nan nan nan nan nan nan nan nan nan nan nan nan nan nan nan nan nan nan nan nan nan nan nan nan nan nan nan nan
nan -0 -0 -0 -0 -0 -0 -0 -0 -0 -0 -0 -0 -0 0 -0 -0 -1 -1 0 -0 -0 -0 -1 -1 -1 -0 -0 0 0 0 -0 -0 -0 -0 -0 -0 -1 -0 -0 -0 0 -0 -0 nan
nan -0 -0 -0 -0 -0 -0 -0 -0 -0 -1 -0 -0 -0 -0 0 -0 -1 0 -0 0 -0 -0 -0 -0 -0 -0 -0 0 -0 -0 -0 -0 -0 -0 -0 -0 -0 -1 -0 -0 -0 -0 0 nan
nan -0 -0 -0 -0 -0 -0 -0 -0 -0 -0 -0 -0 -0 -0 -0 -0 -0 -0 0 0 -0 -0 -0 -0 -0 -0 -0 -0 -0 -0 -0 -0 -0 -1 -0 -0 0 -0 -1 -1 -1 -1 -0 nan
nan -0 -0 -0 -0 -0 -0 -0 -0 -0 -0 -0 -0 -0 -0 -1 -0 -0 -0 -0 -0 -0 -0 0 0 0 0 0 -0 0 -0 -0 -0 -0 -0 -1 -1 -0 0 -1 -1 -1 -1 -1 nan
nan -0 -0 -0 0 0 -0 -0 -0 -0 -0 -0 -0 -0 -1 -0 0 -0 0 0 -0 -0 -0 -0 0 0 0 0 0 -0 0 -0 -0 -0 -0 -0 -0 -1 -1 -1 -0 -0 -1 -1 nan
nan -0 -0 -0 -0 -0 -0 -0 -0 -0 -0 -0 0 -0 -1 0 0 -0 0 0 0 0 -0 -0 0 0 0 0 -0 0 -0 -0 -0 -0 -0 0 -0 -1 -1 -0 -1 -1 -1 -0 nan
nan -0 -0 -0 -0 -0 -0 -0 -0 -0 -0 -0 0 -0 -0 0 0 -0 -1 -0 0 -0 -0 -0 0 0 0 0 0 0 0 -0 0 -0 0 0 -1 -1 -0 -0 -1 -1 -1 0 nan
nan -1 -1 -0 -0 -0 -0 -0 -0 -0 -0 -0 -0 -0 -0 -0 -0 -0 -1 -1 -0 -0 -0 -0 0 0 -0 -0 0 0 0 -0 -1 -0 0 0 -0 -0 -0 -0 -1 -1 -1 0 nan
nan -1 -1 -0 -0 -0 -0 -0 -0 -0 -0 -0 -1 -0 -0 -0 -0 -0 -0 -0 -0 -0 -0 -0 -0 -0 0 0 0 0 0 -0 -0 -0 -0 -0 -0 -0 -0 -1 -1 -1 -1 1 nan
nan -1 -0 -0 -1 -1 -1 -0 -0 -0 -2 -0 -0 -0 -0 -0 -0 -0 -0 -0 -0 -1 -0 -0 -0 0 -0 -0 0 0 -0 -0 -1 -0 0 0 -0 -1 -0 -1 -1 -1 0 1 nan
nan -0 -0 -0 -0 -1 -1 -2 -1 -0 -0 0 -0 -0 -0 -1 -0 -0 -1 -1 -0 -0 -0 -0 0 -0 -0 -0 0 0 -0 -0 -0 0 0 -0 -0 -0 -0 -0 -1 0 0 1 nan
nan -0 -0 -0 -0 -1 -1 -1 -0 -0 -0 -0 -0 -0 -0 0 -0 -0 -1 -0 -0 -0 -0 -0 -0 -0 -0 -0 -0 -0 0 0 0 -0 -0 0 0 -0 -0 0 0 0 -0 1 nan
nan -0 -0 -0 -0 -0 -0 -0 -0 -0 -0 -1 -0 -0 -0 -0 -0 -0 -0 -0 -0 0 -0 -0 -0 -0 -0 -0 -0 -0 0 0 -0 -0 0 -0 -0 0 -0 0 -0 -0 1 1 nan
nan -0 -0 -0 -0 0 0 0 -0 -0 0 -0 -0 -1 -1 -0 -0 -1 -0 -0 -0 -0 -0 -0 0 -0 -0 -0 -0 0 0 -0 -0 0 -0 0 0 -0 -0 -0 -1 -1 -0 2 nan
nan -0 -0 -0 -0 0 0 0 -0 -0 -0 -0 -0 -0 -0 -0 -0 -1 -1 -2 -0 -0 -0 -0 -0 0 -0 -0 -0 -0 0 -0 0 -0 0 -0 -0 -0 -0 -0 -0 -0 -0 1 nan
nan 0 -0 -0 -0 0 0 0 -0 0 -0 -0 -0 -0 -0 -0 -0 -1 -0 -1 -0 -0 -0 -1 -0 -0 -0 -0 -0 -0 0 0 -0 0 -0 0 -0 -0 -0 -0 -0 -0 -0 1 nan
nan 0 -0 -0 0 0 1 -1 -0 -0 -0 -0 0 0 -0 -0 -0 -0 -0 -0 0 -0 0 -0 -1 0 -0 -0 -0 -0 0 0 0 -0 -0 -0 -0 -0 0 -0 -0 -0 0 0 nan
nan -0 -0 0 0 0 -0 -1 0 0 -0 -0 -0 -0 -0 -0 -0 -0 -0 -0 0 -0 -0 -0 -1 -0 -0 -0 -0 -0 -0 0 0 0 -0 0 -0 0 -0 -0 -0 -0 -0 0 nan
nan 0 -0 0 -0 0 -1 -0 -0 -0 -0 -0 -0 -0 -0 -0 -1 -1 -0 -0 -0 0 0 -0 -0 -0 -0 -0 -0 -0 -0 -0 -0 0 0 0 -0 -0 -0 -1 -0 -1 -0 0 nan
nan -0 0 -0 -0 -1 -1 0 -0 -0 -0 -0 -0 -0 0 0 -0 0 -0 -1 0 0 0 0 -0 -1 -0 -0 -0 -0 -0 -0 -0 -0 -0 -0 -0 -0 -0 -0 -0 -0 -0 0 nan
nan -0 -0 0 -1 -1 -0 -0 0 0 -0 -0 -0 -0 -0 0 0 -0 -0 -1 0 0 0 0 0 -0 -1 -0 -0 -0 -0 -0 -0 -0 -0 -0 -0 -0 -0 -0 -0 -0 0 0 nan
nan -0 -0 0 -1 0 -0 -0 0 0 0 -0 -0 -0 -0 0 0 -0 -0 -0 0 0 0 0 -0 -0 -0 -0 -0 -0 -0 -0 0 -0 -0 0 -0 -0 -0 -0 -0 -0 -0 0 nan
nan -0 -0 -0 -1 -1 0 0 0 0 0 0 0 -0 -0 -0 0 -0 -0 -0 -0 -0 -0 -0 0 0 -0 -0 -0 -0 -1 -0 -0 0 0 0 -0 0 -0 -0 -0 -0 -0 -0 nan
nan -0 0 0 0 -0 -0 0 0 0 0 0 0 0 -0 0 -0 -0 -0 -0 -0 -0 -1 -0 -0 -0 -1 -1 -0 -0 0 -0 0 -0 0 0 -0 -0 -0 -0 -0 -0 0 0 nan
nan -0 -0 0 -0 -0 0 -0 -0 0 0 0 0 0 -0 -0 -0 -0 -0 0 0 0 -0 -0 -0 0 -0 -0 -0 -0 -0 -0 0 -0 -0 0 0 0 0 -0 0 0 0 0 nan
nan nan nan nan nan nan nan nan nan nan nan nan nan nan nan nan nan nan nan nan nan nan nan nan nan nan nan nan nan nan nan nan nan nan nan nan nan nan nan nan nan nan nan nan nan
Wind_Speed
19 20 21 22 22 22 22 23 24 25 24 23 21 15 10 9 9 9 15 15 12 15 16 14 11 11 3 3 5 4 2 5 3 3 2 5 6 3 9 5 5 7 5 5 21
21 21 22 22 22 22 23 24 25 25 24 21 15 11 8 1 7 19 13 10 12 16 19 20 18 14 3 1 1 4 4 5 5 2 2 10 7 17 8 10 4 5 5 7 23
21 22 22 23 23 23 24 25 26 25 21 14 12 15 8 3 6 11 12 9 12 16 15 13 12 8 3 1 2 1 4 4 5 16 18 12 15 14 9 6 2 2 17 14 22
22 23 23 23 23 23 24 25 26 22 17 16 14 8 8 7 4 11 12 12 14 13 13 11 9 3 1 2 1 3 10 8 9 17 18 13 17 18 18 17 21 26 29 21 25
25 25 25 24 24 24 25 26 25 18 17 13 10 7 7 12 10 11 11 12 12 13 12 10 7 2 1 3 2 5 7 13 11 15 16 20 20 20 30 29 31 20 19 23 25
27 28 28 27 26 25 26 27 22 14 12 10 13 14 10 11 13 11 13 13 13 12 13 11 6 7 5 4 4 5 9 17 15 20 17 17 23 15 28 23 22 23 25 18 28
28 30 29 27 26 25 27 26 18 10 11 7 13 10 24 13 10 9 15 22 19 14 17 11 9 6 2 3 8 7 8 12 14 13 9 10 14 18 26 31 31 34 28 20 28
29 30 30 27 25 23 26 22 12 5 10 6 4 6 6 16 10 14 23 27 22 6 6 4 6 7 6 6 4 5 4 7 2 3 7 9 17 15 26 28 29 30 25 25 28
27 29 30 28 26 24 25 17 9 6 4 12 4 4 4 12 14 22 29 32 12 10 4 2 2 2 0 3 5 2 6 5 11 4 6 9 12 13 18 21 26 25 23 23 27
26 28 28 26 25 25 26 6 5 13 4 2 13 5 14 18 14 23 32 22 10 7 3 5 3 1 0 1 5 5 8 8 13 4 4 12 19 17 16 18 29 26 27 23 29
27 27 28 25 23 25 26 6 5 3 20 9 6 6 16 22 6 26 36 15 8 10 4 4 2 4 5 6 13 15 14 19 21 16 14 13 17 18 13 19 17 22 26 22 26
28 27 25 23 19 24 24 16 9 3 2 10 10 9 15 19 7 29 35 14 7 4 7 3 2 4 6 11 16 15 16 18 13 13 7 11 17 13 10 13 17 19 20 21 26
28 27 24 22 14 24 23 19 10 2 2 6 9 8 14 14 6 21 30 13 4 4 4 3 5 8 6 14 15 12 13 12 12 7 13 15 9 4 2 3 16 12 17 25 31
28 27 23 21 11 23 21 19 8 3 4 10 8 8 14 14 2 20 27 6 4 5 7 5 4 4 10 12 9 7 3 11 16 9 4 5 3 5 3 9 9 7 12 25 23
28 27 22 17 15 20 20 15 5 2 5 10 7 9 11 10 10 18 19 8 2 6 2 4 5 10 7 7 9 7 10 14 12 12 5 3 0 4 3 7 11 10 17 17 23
26 27 22 17 17 20 19 13 1 5 3 5 7 10 9 9 8 16 14 18 2 4 2 6 9 3 4 12 11 10 9 5 4 2 3 5 1 5 5 5 6 9 17 19 12
25 27 22 17 19 21 19 7 5 6 3 8 5 6 4 5 7 10 7 9 9 9 7 8 4 5 2 9 3 11 4 4 4 4 2 7 7 3 8 9 4 7 15 16 18
24 27 19 12 17 18 17 4 9 1 3 3 5 6 5 9 4 8 5 6 4 4 4 7 9 7 6 2 5 7 4 2 4 4 4 7 5 4 4 6 17 16 13 13 15
23 24 12 12 17 16 7 6 4 5 3 5 5 5 5 4 2 7 5 3 2 4 5 4 6 6 4 3 2 7 4 4 4 1 2 2 1 2 12 14 16 15 18 16 11
23 21 4 14 15 10 5 3 2 3 2 2 2 4 4 6 7 7 4 3 5 4 2 3 7 3 7 5 2 2 5 3 3 4 3 2 4 5 11 11 11 12 15 15 16
15 9 5 17 11 5 4 3 3 3 1 2 3 1 1 3 2 4 4 5 3 6 3 2 1 7 4 4 4 5 4 4 1 2 2 2 2 4 6 6 6 7 9 10 12
7 3 12 9 4 3 2 4 3 3 2 3 2 2 2 0 2 2 4 5 7 4 6 1 3 5 5 6 4 2 5 4 2 5 2 1 2 4 4 6 5 6 7 6 7
4 4 4 6 3 1 1 1 2 3 3 4 4 4 2 1 2 3 3 4 7 4 6 3 2 5 8 5 4 4 6 5 3 0 2 2 2 2 4 6 8 6 7 6 6
1 2 2 5 4 6 3 2 2 3 2 3 3 2 2 1 2 3 3 3 9 4 9 2 1 4 4 5 3 6 11 7 1 2 2 1 3 4 6 4 4 4 4 3 5
2 2 1 2 2 4 2 3 3 4 2 3 1 3 4 0 3 3 3 4 2 5 5 3 2 1 9 12 5 7 4 7 5 1 2 3 1 4 3 1 1 1 2 3 3
4 5 4 3 3 4 2 5 6 1 5 3 3 5 5 5 7 4 1 2 4 3 3 3 2 4 5 3 4 4 2 5 2 2 1 1 3 2 4 4 2 2 4 5 5
11 9 4 6 4 3 4 5 6 7 4 3 6 3 2 10 14 15 15 13 9 4 1 2 2 5 5 6 6 3 2 1 3 2 2 2 1 4 2 3 3 4 3 2 3
Wind_Direction
27 23 19 14 9 5 1 357 356 351 350 346 342 350 11 25 59 49 41 40 12 16 4 4 10 22 71 136 175 186 249 240 238 179 269 346 351 313 324 268 234 217 210 209 184
24 20 16 12 7 4 360 356 353 350 346 344 349 0 359 79 79 56 52 23 8 2 354 359 5 4 64 60 171 193 226 228 195 232 360 338 344 318 330 326 263 265 299 276 189
20 17 14 11 6 4 359 356 352 350 353 358 357 335 338 174 101 38 34 23 359 357 356 358 359 12 38 349 242 309 250 323 270 301 310 322 317 330 306 304 259 347 327 321 202
17 14 12 10 6 2 358 355 352 353 358 347 348 15 62 126 79 16 3 353 348 347 350 359 352 26 341 292 300 314 267 280 294 296 306 294 292 288 279 273 299 298 298 296 222
14 11 9 8 6 1 357 353 352 355 2 12 32 76 85 71 34 6 345 338 334 333 337 342 347 358 299 230 282 231 266 281 280 287 285 284 274 264 269 280 290 299 301 290 217
13 9 5 4 4 359 356 352 352 4 15 40 80 78 71 72 12 351 355 343 337 330 323 316 298 303 260 228 192 241 256 282 289 284 279 268 271 275 258 258 266 295 305 278 210
11 7 3 1 2 359 356 354 359 25 35 90 114 61 55 44 21 11 345 349 336 303 303 303 296 263 286 267 270 280 288 286 264 258 255 262 263 252 262 262 258 267 286 263 210
5 2 0 359 359 2 358 357 8 29 32 56 150 57 80 17 21 356 352 340 347 343 313 280 275 263 245 270 304 281 262 293 102 298 258 184 268 259 261 248 247 252 267 259 211
2 359 357 356 356 1 3 360 14 13 351 45 68 86 41 347 6 2 357 348 1 8 12 297 266 224 354 304 282 228 272 267 309 240 255 199 268 271 285 247 241 236 249 240 202
359 356 355 356 355 357 5 351 59 40 50 84 34 91 9 346 3 353 356 359 10 10 80 37 44 47 166 137 285 296 278 269 273 258 244 275 267 274 286 271 238 233 243 224 186
355 356 353 355 354 356 2 12 13 50 58 63 44 47 344 353 7 4 360 1 21 50 22 343 317 249 233 286 272 272 268 269 273 271 272 258 261 268 281 266 252 218 230 214 178
356 357 354 353 353 357 359 45 35 350 57 46 33 17 359 352 326 2 360 16 19 2 351 10 248 251 266 286 277 260 251 257 279 269 217 255 257 258 255 244 233 225 229 194 153
358 357 356 353 351 356 8 26 26 101 67 25 23 4 357 345 11 359 1 347 13 353 354 285 254 319 301 305 301 266 266 264 267 280 258 255 273 244 237 141 215 231 230 189 166
360 358 356 355 359 355 1 2 9 94 78 337 351 11 351 352 78 8 4 13 348 333 328 259 289 311 321 307 337 311 252 274 280 289 283 171 290 65 3 60 54 359 208 172 161
1 356 354 357 353 353 345 349 358 106 37 336 335 342 355 34 340 357 4 10 4 314 332 274 317 331 318 309 307 263 312 290 289 293 335 41 75 8 14 42 45 42 56 125 161
357 355 349 350 352 345 342 344 17 43 300 350 349 355 7 17 4 345 4 20 319 338 266 266 289 245 251 298 266 283 295 285 274 319 4 316 35 26 9 327 2 37 48 91 134
351 353 347 349 347 342 339 329 32 85 356 341 338 349 335 331 349 13 358 17 38 357 2 323 294 292 310 320 335 336 351 344 3 13 302 344 57 41 338 350 319 34 58 84 127
346 347 347 351 344 343 338 37 60 325 315 330 340 324 31 1 14 349 13 18 26 17 315 356 331 8 346 347 302 313 351 13 316 342 312 12 29 20 340 28 66 74 71 87 102
341 342 352 353 345 344 340 47 193 205 242 338 312 21 340 19 14 4 26 330 353 351 358 341 279 313 276 302 315 330 16 310 292 224 35 10 83 265 20 28 43 51 67 77 86
338 338 355 350 343 348 68 141 153 192 134 80 74 56 339 334 5 24 353 291 335 357 226 294 295 275 301 328 323 296 309 352 13 0 19 75 50 11 354 360 20 41 51 84 101
328 326 324 342 345 18 104 182 194 181 127 114 180 285 318 299 20 328 270 287 339 314 327 300 207 294 346 17 329 345 7 341 353 348 347 15 61 4 332 342 356 37 56 69 90
306 307 318 343 25 40 128 181 162 168 146 130 138 181 209 266 267 276 250 223 348 339 339 298 279 282 270 297 275 356 11 358 355 335 39 330 53 348 358 4 27 44 57 68 83
287 280 324 350 102 339 225 186 194 174 185 157 172 185 160 217 351 210 262 262 1 15 347 355 314 327 347 353 4 26 354 345 273 328 11 45 15 18 46 36 33 37 43 64 80
277 334 3 32 95 127 137 215 199 211 179 187 155 136 76 356 216 286 285 288 336 33 360 331 261 177 216 241 328 312 327 350 349 26 317 78 316 2 28 35 24 17 11 41 79
189 166 219 302 339 105 118 194 165 203 194 207 178 189 154 249 307 244 257 296 317 18 16 84 295 341 270 272 265 256 317 341 37 336 91 309 40 337 354 15 73 92 58 69 70
215 157 168 119 139 107 338 228 194 197 147 236 168 168 169 184 194 241 174 219 246 340 50 355 305 347 291 249 354 274 26 346 356 352 312 353 40 268 341 36 38 37 52 70 92
226 200 170 160 148 107 223 198 211 162 204 196 188 126 223 243 251 264 266 259 261 301 279 64 43 359 276 340 330 357 251 337 300 284 237 60 350 334 24 48 33 28 43 70 75
Height
1551 1549 1547 1544 1541 1539 1536 1533 1530 1526 1523 1520 1517 1515 1514 1514 1513 1511 1509 1515 1515 1512 1511 1509 1507 1505 1505 1506 1507 1508 1511 1509 1505 1504 1500 1499 1499 1495 1494 1492 1491 1491 1489 1489 1491
1553 1550 1548 1545 1542 1539 1535 1532 1529 1526 1522 1518 1516 1514 1514 1513 1513 1511 1516 1517 1515 1513 1510 1507 1505 1505 1505 1506 1506 1506 1507 1503 1501 1500 1501 1501 1501 1499 1495 1491 1490 1490 1491 1489 1490
1552 1550 1547 1545 1541 1538 1535 1531 1528 1524 1520 1517 1515 1513 1511 1511 1513 1517 1517 1516 1516 1513 1511 1510 1508 1507 1506 1506 1506 1506 1502 1502 1500 1500 1501 1502 1500 1500 1497 1491 1490 1490 1490 1491 1490
1553 1550 1547 1544 1541 1537 1533 1530 1526 1522 1520 1517 1514 1512 1511 1512 1521 1519 1518 1517 1516 1514 1512 1510 1509 1508 1509 1509 1507 1508 1502 1501 1501 1500 1499 1500 1500 1495 1496 1493 1490 1489 1488 1488 1488
1554 1551 1547 1544 1540 1536 1533 1528 1525 1521 1519 1516 1515 1514 1514 1515 1521 1520 1518 1517 1515 1513 1511 1510 1509 1509 1510 1509 1509 1506 1502 1499 1498 1498 1497 1496 1493 1491 1485 1488 1488 1486 1484 1482 1482
1554 1551 1548 1544 1541 1536 1532 1527 1523 1520 1518 1517 1517 1516 1516 1518 1522 1519 1517 1515 1512 1510 1509 1509 1508 1508 1507 1507 1508 1503 1500 1497 1496 1493 1492 1493 1488 1490 1478 1483 1483 1482 1480 1476 1477
1554 1550 1546 1543 1540 1536 1531 1526 1522 1521 1519 1517 1517 1517 1518 1525 1521 1519 1516 1512 1509 1507 1505 1505 1506 1507 1506 1505 1503 1501 1499 1494 1489 1487 1486 1487 1484 1478 1479 1478 1477 1477 1478 1475 1474
1554 1550 1546 1542 1538 1534 1530 1525 1522 1521 1520 1519 1518 1518 1520 1522 1521 1518 1514 1508 1504 1501 1501 1502 1503 1504 1503 1503 1501 1501 1499 1492 1483 1483 1482 1483 1476 1470 1469 1471 1467 1469 1473 1471 1470
1554 1550 1545 1541 1537 1533 1529 1524 1522 1520 1520 1519 1519 1518 1523 1522 1518 1516 1513 1507 1503 1501 1500 1501 1502 1503 1504 1503 1500 1500 1499 1499 1484 1480 1479 1479 1470 1463 1465 1466 1462 1463 1466 1467 1467
1554 1549 1544 1540 1536 1532 1528 1523 1522 1520 1518 1520 1520 1523 1523 1523 1519 1517 1512 1505 1502 1501 1501 1501 1502 1504 1505 1504 1502 1499 1498 1494 1489 1480 1476 1473 1467 1461 1460 1462 1457 1457 1461 1463 1462
1553 1549 1544 1540 1536 1532 1527 1524 1525 1523 1522 1526 1529 1528 1526 1523 1519 1516 1509 1505 1503 1503 1506 1503 1505 1508 1503 1501 1500 1496 1494 1487 1476 1474 1473 1467 1462 1456 1456 1455 1454 1454 1456 1460 1459
1552 1548 1544 1540 1537 1533 1529 1525 1528 1531 1530 1530 1529 1529 1526 1523 1520 1516 1512 1507 1506 1507 1504 1507 1509 1500 1500 1497 1494 1489 1486 1478 1473 1466 1468 1461 1455 1451 1449 1446 1449 1449 1454 1457 1451
1552 1548 1544 1540 1536 1533 1529 1530 1528 1529 1530 1531 1530 1528 1526 1525 1523 1521 1516 1511 1510 1509 1509 1507 1500 1498 1499 1494 1488 1481 1478 1474 1471 1465 1459 1457 1452 1449 1443 1443 1445 1446 1449 1455 1455
1552 1548 1543 1540 1538 1534 1531 1529 1528 1528 1539 1538 1531 1531 1529 1524 1524 1524 1518 1516 1513 1512 1509 1505 1498 1498 1498 1492 1488 1479 1474 1473 1468 1462 1453 1454 1453 1444 1447 1445 1445 1447 1447 1453 1456
1553 1548 1543 1539 1538 1535 1534 1529 1528 1529 1554 1539 1537 1535 1532 1532 1534 1527 1522 1516 1517 1515 1515 1502 1500 1498 1496 1491 1487 1479 1475 1470 1464 1459 1458 1451 1450 1453 1451 1452 1452 1453 1450 1452 1459
1553 1547 1544 1541 1538 1535 1531 1528 1528 1538 1560 1543 1540 1538 1534 1533 1534 1529 1526 1520 1518 1516 1512 1508 1500 1499 1495 1487 1482 1477 1470 1464 1461 1466 1461 1453 1449 1466 1467 1466 1462 1458 1458 1457 1459
1552 1547 1544 1541 1539 1535 1531 1531 1540 1549 1548 1549 1548 1545 1543 1540 1537 1537 1534 1536 1538 1536 1532 1513 1500 1496 1494 1487 1480 1478 1475 1484 1472 1471 1460 1456 1454 1479 1474 1471 1470 1465 1463 1465 1466
1552 1547 1544 1541 1539 1535 1532 1533 1552 1558 1563 1556 1552 1547 1548 1546 1543 1542 1540 1545 1541 1541 1537 1534 1514 1499 1494 1495 1489 1482 1477 1475 1474 1465 1464 1460 1478 1479 1478 1474 1471 1472 1470 1471 1473
1550 1547 1543 1542 1539 1535 1534 1559 1566 1568 1560 1557 1553 1551 1552 1549 1552 1548 1557 1552 1546 1545 1544 1544 1521 1500 1496 1494 1493 1480 1480 1481 1476 1476 1473 1475 1482 1480 1478 1476 1478 1479 1479 1479 1480
1550 1545 1544 1542 1538 1535 1537 1558 1556 1556 1554 1556 1561 1559 1559 1556 1556 1560 1564 1550 1548 1545 1544 1540 1533 1505 1498 1493 1492 1490 1487 1480 1480 1476 1479 1471 1478 1487 1488 1489 1488 1487 1488 1489 1489
1548 1545 1543 1541 1539 1539 1556 1557 1554 1554 1555 1558 1560 1559 1559 1565 1567 1563 1566 1551 1547 1544 1542 1540 1541 1514 1504 1505 1505 1494 1496 1491 1490 1486 1478 1466 1485 1499 1498 1497 1497 1496 1495 1494 1494
1545 1546 1543 1541 1540 1548 1555 1552 1551 1553 1552 1553 1556 1558 1557 1558 1570 1562 1565 1553 1546 1545 1542 1540 1538 1537 1514 1506 1504 1503 1504 1502 1492 1487 1494 1490 1492 1503 1501 1499 1498 1498 1498 1497 1497
1544 1543 1542 1540 1552 1556 1553 1552 1551 1552 1552 1552 1553 1554 1555 1557 1565 1558 1552 1546 1545 1544 1543 1541 1549 1540 1521 1513 1505 1510 1505 1508 1506 1507 1508 1495 1494 1505 1503 1501 1501 1500 1500 1500 1501
1543 1543 1542 1542 1543 1546 1554 1552 1552 1551 1551 1551 1551 1553 1555 1556 1556 1556 1551 1545 1544 1543 1542 1540 1542 1543 1539 1528 1524 1522 1509 1509 1513 1500 1508 1507 1504 1504 1505 1504 1504 1504 1502 1502 1503
1541 1543 1543 1545 1546 1546 1549 1550 1550 1551 1551 1552 1552 1552 1557 1564 1560 1558 1550 1546 1543 1543 1542 1544 1547 1545 1534 1528 1524 1517 1516 1514 1519 1513 1510 1509 1512 1507 1507 1507 1507 1507 1506 1504 1503
1539 1540 1543 1545 1547 1549 1550 1551 1548 1549 1550 1551 1554 1549 1554 1557 1553 1559 1550 1548 1546 1543 1546 1546 1549 1544 1538 1520 1525 1516 1514 1515 1515 1514 1509 1512 1510 1509 1506 1505 1505 1505 1505 1506 1507
1534 1536 1538 1544 1546 1549 1546 1544 1543 1543 1545 1544 1547 1550 1552 1547 1546 1545 1545 1545 1544 1544 1547 1551 1552 1546 1543 1528 1534 1521 1525 1521 1517 1517 1515 1510 1510 1510 1509 1507 1506 1506 1505 1506 1506